This is the latest recevied weather packets stored in our database for station/object KQ4NAL. If no packets are shown the sender has not sent any weather packets the latest 10 day(s).
| Time | Temp. | Humidity | Pressure | Rain* | Wind** | Luminosity | Snow |
|---|---|---|---|---|---|---|---|
| 1777853691 | 14.44° C | 44% | 1014.4 hPa | 0 mm | - | 6 W/m² | - |
| 1777853387 | 14.44° C | 45% | 1014.3 hPa | 0 mm | - | 6 W/m² | - |
| 1777853084 | 15° C | 44% | 1014.5 hPa | 0 mm | - | 12 W/m² | - |
| 1777852782 | 15° C | 45% | 1014.2 hPa | 0 mm | - | 13 W/m² | - |
| 1777852479 | 15° C | 44% | 1014.2 hPa | 0 mm | - | 12 W/m² | - |
| 1777852177 | 15° C | 43% | 1014.3 hPa | 0 mm | - | 14 W/m² | - |
| 1777851874 | 15° C | 43% | 1014.1 hPa | 0 mm | - | 31 W/m² | - |
| 1777851572 | 15° C | 43% | 1014.2 hPa | 0 mm | - | 54 W/m² | - |
| 1777851268 | 15° C | 43% | 1014.3 hPa | 0 mm | - | 59 W/m² | - |
| 1777850965 | 15.56° C | 42% | 1014.5 hPa | 0 mm | - | 40 W/m² | - |
| 1777850662 | 15.56° C | 43% | 1014.6 hPa | 0 mm | - | 33 W/m² | - |
| 1777850360 | 15.56° C | 43% | 1014.8 hPa | 0 mm | - | 39 W/m² | - |
| 1777850057 | 15.56° C | 42% | 1014.7 hPa | 0 mm | - | 69 W/m² | - |
| 1777849753 | 15.56° C | 43% | 1014.9 hPa | 0 mm | - | 58 W/m² | - |
| 1777849450 | 15.56° C | 43% | 1014.6 hPa | 0 mm | - | 43 W/m² | - |
| 1777849148 | 15.56° C | 42% | 1015 hPa | 0 mm | - | 46 W/m² | - |
| 1777848843 | 15.56° C | 41% | 1015.3 hPa | 0 mm | - | 67 W/m² | - |
| 1777848540 | 15.56° C | 41% | 1015.4 hPa | 0 mm | - | 54 W/m² | - |
| 1777848237 | 16.11° C | 40% | 1015.4 hPa | 0 mm | - | 70 W/m² | - |
| 1777847935 | 16.67° C | 42% | 1015.6 hPa | 0 mm | - | 193 W/m² | - |
| 1777847632 | 16.67° C | 41% | 1015.3 hPa | 0 mm | - | 163 W/m² | - |
| 1777847327 | 16.67° C | 40% | 1015.5 hPa | 0 mm | - | 259 W/m² | - |
| 1777847026 | 16.67° C | 40% | 1015.7 hPa | 0 mm | - | 276 W/m² | - |
| 1777846724 | 16.11° C | 39% | 1015.8 hPa | 0 mm | - | 237 W/m² | - |
| 1777846423 | 17.22° C | 40% | 1015.8 hPa | 0 mm | - | 215 W/m² | - |
* Rain latest hour (hover to see other rain measurements)
** Current wind speed in m/s (hover to see current wind gust speed)